[[{"header":{"parameterUnit":"m.s-1","parameterCategory":1,"la1":30.2991,"la2":30.254,"lo1":-89.0895,"lo2":-89.0444,"dy":0.0017,"dx":0.0017,"nx":28,"ny":28,"refTime":"2023-10-21T21:00:00:Z","depth":0,"parameterNumber":2,"parameterNumberName":"U-component_of_WINDS"},"data":[0,0,0,0,0,0,0,0,0,0,0,0,0,0,0,0,0,0,0,0,0,0,0,0,0,0,0,0,0,0,0,0,0,0,0,0,0,0,0,0,0,0,0,0,0,0,0,0,0,0,0,0,0,0,0,0,0,0,-3.4093,-3.4093,0,-3.4146,-3.4147,-3.4148,-3.4155,-3.4154,-3.4154,-3.4153,-3.4206,-3.4208,-3.421,0,0,0,0,0,0,0,0,0,0,0,0,0,-3.3998,-3.3999,-3.4093,-3.4093,-3.4094,-3.4146,-3.4147,-3.4148,-3.4155,-3.4154,-3.4154,-3.4153,-3.4206,-3.4208,-3.421,0,0,0,0,0,0,0,0,0,0,0,0,0,-3.4044,-3.4,-3.4092,-3.4104,-3.4105,-3.4146,-3.4147,-3.4148,-3.4155,-3.4154,-3.4153,-3.4153,-3.4205,-3.4208,-3.421,-3.4243,0,0,-3.4219,-3.422,0,0,0,0,0,0,0,0,-3.4041,-3.4047,-3.4101,-3.4103,-3.4105,-3.4143,-3.4133,-3.418,-3.4155,-3.4136,-3.4153,-3.4152,-3.4186,-3.419,-3.4202,-3.4245,-3.4248,-3.4219,-3.4221,-3.4222,-3.4223,0,0,0,0,0,0,0,-3.4038,-3.4045,-3.4114,-3.4102,-3.4104,-3.4107,-3.4113,-3.4142,-3.4164,-3.4138,-3.4138,-3.4145,-3.4186,-3.4199,-3.4203,-3.4249,-3.4219,-3.4222,-3.4223,-3.4225,-3.4327,-3.4328,0,0,0,0,0,0,-3.4033,-3.4042,-3.4112,-3.4115,-3.4071,-3.4109,-3.4116,-3.4132,-3.4164,-3.4168,-3.4145,-3.4145,-3.4195,-3.42,-3.4205,-3.4248,-3.4222,-3.4225,-3.4226,-3.4326,-3.4327,-3.4328,0,0,0,0,0,0,-3.4031,-3.4039,-3.411,-3.4079,-3.4089,-3.4112,-3.413,-3.4133,-3.4145,-3.417,-3.4174,-3.4154,-3.4194,-3.4201,-3.4235,-3.425,-3.4226,-3.4229,-3.4325,-3.4326,-3.4328,-3.4332,0,0,0,0,0,0,-3.4028,-3.4038,-3.405,-3.4079,-3.409,-3.4138,-3.413,-3.4135,-3.4151,-3.4151,-3.4179,-3.4183,-3.4194,-3.4231,-3.4238,-3.4253,-3.4231,-3.4324,-3.4326,-3.4327,-3.433,-3.4333,-3.4336,0,0,0,0,0,-3.4025,-3.4047,-3.405,-3.4059,-3.4105,-3.4139,-3.4145,-3.4158,-3.4152,-3.4164,-3.4181,-3.4182,-3.4248,-3.4234,-3.4242,-3.4258,-3.4323,-3.4325,-3.4327,-3.4329,-3.4333,-3.4336,0,0,0,0,0,0,-3.4016,-3.4051,-3.4055,-3.4088,-3.4111,-3.414,-3.4155,-3.416,-3.4184,-3.4183,-3.4198,-3.4205,-3.4238,-3.4252,-3.4236,-3.4294,-3.4285,-3.4289,-3.4283,-3.4287,-3.429,-3.4285,-3.4233,0,0,0,0,0,-3.4019,-3.4043,-3.4072,-3.4099,-3.411,-3.4132,-3.4146,-3.4155,-3.4179,-3.4188,-3.4207,-3.423,-3.4256,-3.4273,-3.4298,-3.4334,-3.4341,-3.435,-3.4352,-3.4355,-3.4357,-3.4381,-3.4385,-3.4336,-3.4336,-3.4336,0,0,-3.4023,-3.4045,-3.4059,-3.4098,-3.4116,-3.4142,-3.4139,-3.4165,-3.4185,-3.4192,-3.4225,-3.4241,-3.4268,-3.4304,-3.4321,-3.4316,-3.4373,-3.4357,-3.4359,-3.436,-3.4384,-3.4388,-3.4392,-3.4338,-3.4337,-3.4337,0,0,-3.4044,-3.4062,-3.4088,-3.4108,-3.4138,-3.4153,-3.4159,-3.419,-3.4201,-3.4235,-3.4242,-3.4267,-3.431,-3.4331,-3.4346,-3.4383,-3.4385,-3.4391,-3.4404,-3.4426,-3.443,-3.4434,-3.4448,-3.4453,-3.4394,-3.4394,-3.4394,0,-3.4044,-3.4084,-3.41,-3.4128,-3.4146,-3.4157,-3.4184,-3.4203,-3.4238,-3.4251,-3.4247,-3.4306,-3.4324,-3.4367,-3.4376,-3.4388,-3.4397,-3.4386,-3.4429,-3.4432,-3.4436,-3.4449,-3.4454,-3.4394,-3.4394,-3.4394,-3.4394,0,-3.4085,-3.4112,-3.413,-3.4167,-3.4187,-3.4214,-3.4236,-3.4255,-3.4264,-3.428,-3.4318,-3.4342,-3.4374,-3.4385,-3.4392,-3.443,-3.4427,-3.4425,-3.4415,-3.4441,-3.4454,-3.4459,-3.4395,-3.4395,-3.4395,-3.4395,0,0,-3.4096,-3.4147,-3.4153,-3.4172,-3.4208,-3.423,-3.426,-3.4293,-3.431,-3.4336,-3.4362,-3.4402,-3.4403,-3.4421,-3.4432,-3.4452,-3.4482,-3.4449,-3.445,-3.4454,-3.4527,-3.4528,-3.4533,-3.4486,-3.4487,-3.4487,-3.4525,0,-3.4122,-3.4175,-3.4194,-3.4238,-3.4265,-3.4279,-3.4305,-3.4331,-3.4349,-3.4375,-3.4395,-3.4423,-3.4421,-3.4433,-3.4454,-3.4474,-3.4497,-3.4472,-3.451,-3.4511,-3.4501,-3.454,-3.4539,-3.4573,-3.4531,-3.4531,-3.4532,0,-3.4157,-3.4186,-3.4234,-3.4271,-3.4284,-3.4307,-3.4341,-3.4366,-3.4397,-3.4409,-3.4433,-3.4444,-3.4477,-3.4468,-3.4516,-3.4498,-3.4516,-3.4529,-3.4531,-3.4533,-3.4521,-3.4543,-3.4584,-3.4589,-3.454,-3.4539,-3.4539,0,-3.4162,-3.4214,-3.425,-3.4265,-3.431,-3.4326,-3.4346,-3.4376,-3.4397,-3.4428,-3.4441,-3.4475,-3.4493,-3.452,-3.4541,-3.4532,-3.4587,-3.4579,-3.4598,-3.4598,-3.4606,-3.4605,-3.465,-3.462,-3.462,-3.462,-3.462,0,-3.4188,-3.4216,-3.4253,-3.4275,-3.4309,-3.4332,-3.4365,-3.4385,-3.4414,-3.4441,-3.4456,-3.4481,-3.4507,-3.4537,-3.4553,-3.4591,-3.4599,-3.461,-3.4614,-3.4608,-3.4607,-3.4618,-3.4616,-3.4621,-3.4621,-3.4621,-3.462,0,-3.4197,-3.4223,-3.4264,-3.4305,-3.4316,-3.4339,-3.4374,-3.4397,-3.4418,-3.4452,-3.4462,-3.4493,-3.4529,-3.4554,-3.4599,-3.4611,-3.4652,-3.4655,-3.4641,-3.4643,-3.4661,-3.4659,-3.4714,-3.4723,-3.4687,-3.4687,-3.4687,0,-3.4211,-3.4234,-3.4279,-3.4299,-3.4319,-3.435,-3.4373,-3.4398,-3.4421,-3.4462,-3.448,-3.4518,-3.4549,-3.4606,-3.4633,-3.4669,-3.4673,-3.4691,-3.4678,-3.4673,-3.4674,-3.4672,-3.4675,-3.4691,-3.4692,-3.4692,-3.4692,0,-3.4233,-3.4247,-3.4278,-3.4316,-3.4342,-3.4373,-3.4403,-3.4419,-3.445,-3.4475,-3.4513,-3.4538,-3.4587,-3.4624,-3.4664,-3.4685,-3.4694,-3.4697,-3.4703,-3.4696,-3.4687,-3.4693,-3.4646,-3.4694,-3.4694,-3.4694,-3.4694,-3.4694,-3.4245,-3.4268,-3.4304,-3.434,-3.4367,-3.4397,-3.4421,-3.4447,-3.4479,-3.4521,-3.4535,-3.4575,-3.4611,-3.4665,-3.4688,-3.472,-3.4718,-3.4727,-3.4729,-3.4731,-3.4731,-3.4684,-3.4727,-3.4727,-3.4727,-3.4727,-3.4727,0,-3.4269,-3.4294,-3.4328,-3.4372,-3.4401,-3.441,-3.4446,-3.447,-3.4505,-3.4538,-3.457,-3.4615,-3.4654,-3.4686,-3.4726,-3.4746,-3.4752,-3.4755,-3.4753,-3.4758,-3.473,-3.4721,-3.475,-3.475,-3.475,-3.475,-3.475,-3.475,-3.4284,-3.4324,-3.4342,-3.4396,-3.4422,-3.4462,-3.4482,-3.451,-3.4537,-3.4588,-3.462,-3.4642,-3.4676,-3.4719,-3.4755,-3.4764,-3.4778,-3.4781,-3.4791,-3.4763,-3.476,-3.4757,-3.4749,-3.4784,-3.4784,-3.4817,-3.4817,-3.4817]},{"header":{"parameterUnit":"m.s-1","parameterCategory":1,"la1":30.2991,"la2":30.254,"lo1":-89.0895,"lo2":-89.0444,"dy":0.0017,"dx":0.0017,"nx":28,"ny":28,"refTime":"2023-10-21T21:00:00:Z","depth":0,"parameterNumber":3,"parameterNumberName":"V-component_of_WINDS"},"data":[0,0,0,0,0,0,0,0,0,0,0,0,0,0,0,0,0,0,0,0,0,0,0,0,0,0,0,0,0,0,0,0,0,0,0,0,0,0,0,0,0,0,0,0,0,0,0,0,0,0,0,0,0,0,0,0,0,0,1.6422,1.6423,0,1.6449,1.6449,1.6449,1.6532,1.6534,1.6535,1.6537,1.6558,1.6557,1.6556,0,0,0,0,0,0,0,0,0,0,0,0,0,1.6439,1.6438,1.6422,1.6423,1.6423,1.6449,1.6449,1.6449,1.6531,1.6534,1.6536,1.6538,1.6558,1.6557,1.6556,0,0,0,0,0,0,0,0,0,0,0,0,0,1.6445,1.6438,1.6422,1.6467,1.6472,1.6449,1.6449,1.6449,1.6531,1.6534,1.6537,1.6539,1.6559,1.6557,1.6555,1.6489,0,0,1.655,1.6549,0,0,0,0,0,0,0,0,1.6445,1.6444,1.646,1.6464,1.6469,1.649,1.6463,1.6463,1.653,1.6508,1.6537,1.654,1.6533,1.6533,1.6532,1.649,1.6491,1.655,1.6549,1.6548,1.6548,0,0,0,0,0,0,0,1.6444,1.6444,1.6433,1.646,1.6466,1.6485,1.6489,1.6463,1.6504,1.651,1.6516,1.6519,1.6536,1.6533,1.6533,1.6491,1.655,1.6548,1.6547,1.6547,1.6399,1.6396,0,0,0,0,0,0,1.6438,1.6443,1.6432,1.6433,1.6464,1.6482,1.6487,1.648,1.6505,1.6512,1.6516,1.6522,1.6535,1.6535,1.6534,1.646,1.6548,1.6547,1.6546,1.6402,1.6398,1.6395,0,0,0,0,0,0,1.6438,1.6436,1.6431,1.644,1.6441,1.6479,1.6471,1.6479,1.6477,1.651,1.6517,1.6507,1.6537,1.6537,1.6501,1.6461,1.6546,1.6544,1.6405,1.6401,1.6397,1.6309,0,0,0,0,0,0,1.6438,1.6436,1.6412,1.6439,1.644,1.6398,1.6469,1.6478,1.6475,1.6483,1.6503,1.6508,1.6539,1.6503,1.6499,1.6461,1.6543,1.6409,1.6403,1.6398,1.6316,1.6302,1.6291,0,0,0,0,0,1.6439,1.6384,1.641,1.6408,1.6411,1.6395,1.6396,1.6434,1.6471,1.6447,1.6468,1.6508,1.6467,1.6499,1.6495,1.6455,1.6412,1.6405,1.6399,1.6321,1.6305,1.6291,0,0,0,0,0,0,1.6348,1.6388,1.6417,1.6371,1.6379,1.6409,1.638,1.6415,1.6412,1.6419,1.6466,1.6469,1.6427,1.6438,1.6473,1.6394,1.6446,1.6438,1.6388,1.6373,1.6361,1.6359,1.6541,0,0,0,0,0,1.6324,1.6309,1.6344,1.6299,1.6303,1.634,1.6335,1.6364,1.6374,1.6377,1.6396,1.6403,1.6392,1.6383,1.6374,1.6318,1.6324,1.6289,1.6277,1.6266,1.6259,1.6231,1.6217,1.6374,1.6374,1.6374,0,0,1.6271,1.6291,1.6279,1.6282,1.6292,1.6275,1.6342,1.6321,1.6309,1.6374,1.6342,1.6356,1.6366,1.632,1.6301,1.6328,1.6217,1.6258,1.625,1.6248,1.6223,1.6208,1.6195,1.637,1.637,1.6371,0,0,1.6167,1.6181,1.6146,1.6156,1.6171,1.6197,1.6189,1.6214,1.6227,1.6196,1.6245,1.623,1.621,1.6216,1.6217,1.6118,1.6155,1.6114,1.6049,1.6021,1.6009,1.5998,1.5963,1.595,1.6107,1.6106,1.6106,0,1.6099,1.6077,1.6123,1.6099,1.6099,1.6161,1.6125,1.6132,1.6142,1.6141,1.6171,1.6149,1.616,1.6117,1.6094,1.6092,1.6083,1.6111,1.6007,1.5997,1.5988,1.5955,1.5942,1.6101,1.6102,1.6102,1.6103,0,1.5993,1.5978,1.5947,1.596,1.5956,1.5927,1.5967,1.5958,1.5988,1.6011,1.5979,1.5996,1.5993,1.5985,1.6012,1.5946,1.5963,1.5999,1.6053,1.5967,1.5937,1.5925,1.6094,1.6096,1.6097,1.6099,0,0,1.5831,1.5872,1.5859,1.5867,1.589,1.5878,1.5851,1.5851,1.5843,1.5849,1.5827,1.581,1.5846,1.5846,1.5876,1.5852,1.5774,1.5892,1.5893,1.587,1.5702,1.5674,1.5659,1.5799,1.5797,1.5795,1.5702,0,1.5733,1.5692,1.5733,1.5683,1.567,1.5729,1.5706,1.5717,1.5738,1.5728,1.5751,1.5739,1.5786,1.5787,1.5766,1.5788,1.5741,1.5795,1.5779,1.5777,1.5774,1.5644,1.5613,1.5524,1.569,1.5688,1.5687,0,1.5612,1.5616,1.5566,1.5595,1.559,1.5569,1.5573,1.5563,1.5578,1.5595,1.5597,1.5634,1.561,1.5663,1.563,1.5666,1.5662,1.5672,1.5669,1.5668,1.5726,1.5639,1.5497,1.5483,1.5669,1.567,1.5672,0,1.55,1.5492,1.5461,1.5466,1.5498,1.5482,1.5495,1.5512,1.551,1.5512,1.5512,1.551,1.551,1.5508,1.5544,1.5579,1.5506,1.5562,1.5519,1.5518,1.55,1.55,1.5355,1.5498,1.5498,1.5498,1.5498,0,1.5385,1.5352,1.5412,1.5392,1.5357,1.5405,1.5368,1.5387,1.5402,1.5387,1.5438,1.5422,1.5471,1.5461,1.5489,1.5457,1.5456,1.5469,1.5477,1.5464,1.5463,1.5461,1.5468,1.5495,1.5495,1.5496,1.5497,0,1.5253,1.5291,1.5262,1.5297,1.5305,1.5277,1.5306,1.529,1.5315,1.5296,1.5294,1.5333,1.5324,1.536,1.5356,1.5375,1.5329,1.5347,1.5324,1.533,1.5285,1.5289,1.5133,1.5115,1.5269,1.5268,1.5267,0,1.5177,1.5154,1.5187,1.5182,1.5192,1.5183,1.5182,1.5229,1.5225,1.5241,1.5222,1.5218,1.5217,1.5199,1.5226,1.5224,1.5242,1.5188,1.5242,1.5231,1.5241,1.5242,1.524,1.5176,1.5174,1.5172,1.5171,0,1.5039,1.506,1.5058,1.5062,1.506,1.5065,1.5074,1.5066,1.5117,1.511,1.5103,1.5102,1.51,1.5095,1.5099,1.511,1.5148,1.5155,1.5145,1.5131,1.5119,1.5125,1.5294,1.5157,1.5159,1.516,1.516,1.5161,1.4933,1.4915,1.4937,1.4933,1.4945,1.4952,1.4939,1.4965,1.496,1.4963,1.4991,1.4978,1.4995,1.5004,1.5013,1.5003,1.5028,1.5013,1.501,1.5005,1.4998,1.5122,1.5004,1.5004,1.5005,1.5005,1.5005,0,1.4797,1.4815,1.4811,1.4823,1.482,1.486,1.4872,1.4866,1.4855,1.4868,1.4867,1.4859,1.4855,1.4883,1.4883,1.487,1.4887,1.4868,1.4869,1.4871,1.4975,1.4984,1.4854,1.4854,1.4854,1.4854,1.4854,1.4854,1.4727,1.47,1.4724,1.4703,1.4721,1.4711,1.4714,1.4722,1.4733,1.4722,1.472,1.474,1.4759,1.4761,1.4759,1.4767,1.4764,1.4739,1.4753,1.4849,1.4864,1.4878,1.4886,1.4738,1.4738,1.465,1.465,1.4649]}]]